Other Public Products
Issued by NWS Charleston, SC

Current Version | Previous Version | Text Only | Print | Product List | Glossary Off
Versions: 1 2 3 4 5 6 7 8 9 10 11 12 13 14 15 16 17 18 19 20 21 22 23 24 25 26 27 28 29 30 31 32 33 34 35 36 37 38 39 40 41 42 43 44 45 46 47 48 49 50

821
FPUS82 KCHS 211227
OPUCHS

TEST...KCHS/KSAV Gateway Observations...TEST
National Weather Service Charleston SC
700 AM EST SUN JAN 21 2018

NOTE: "fair" indicates few or no clouds below 12,000 feet with no
significant weather and/or obstructions to visibility.

SCZ050-WAZ558-NCZ071-TXZ119-213-PAZ071-DCZ001-FLZ074-172-MI076-
NYZ176-178-MAZ016-IL014-TNZ027-NJZ106-GAZ044-MD014-211300-

...Gateway Observations for Charleston International...

CITY           SKY/WX    TMP DP  RH WIND       PRES   REMARKS
Chas Airport   MOCLDY    47  30  51 CALM      30.26R
6HR MIN TEMP:  46; 6HR MAX TEMP:  50;

Seattle        CLOUDY    49  35  58 S21G30    29.86F
6HR MIN TEMP:  48; 6HR MAX TEMP:  50;

Charlotte      FAIR      36  32  85 N3        30.23S
6HR MIN TEMP:  33; 6HR MAX TEMP:  44;

Dallas DFW     MOCLDY    64  58  80 S15       29.87F
6HR MIN TEMP:  64; 6HR MAX TEMP:  65;

Dallas Love    MOCLDY    63  58  83 S12       29.89S
6HR MIN TEMP:  62; 6HR MAX TEMP:  65;

Philladelphia  FAIR      33  28  81 S6        30.18R WCI  28
6HR MIN TEMP:  31; 6HR MAX TEMP:  35;

Wash National  MOCLDY    35  32  88 S7        30.19R WCI  29
6HR MIN TEMP:  32; 6HR MAX TEMP:  38;

Baltimore      MOCLDY    35  33  92 SW3       30.17R
6HR MIN TEMP:  29; 6HR MAX TEMP:  40;

Miami          CLOUDY    71  65  81 E13       30.14F
6HR MIN TEMP:  70; 6HR MAX TEMP:  72;

Detroit        CLOUDY    36  35  96 S3        30.08R FOG
6HR MIN TEMP:  35; 6HR MAX TEMP:  37;

Newark         FAIR      36  28  73 SW3       30.15R
6HR MIN TEMP:  34; 6HR MAX TEMP:  39;

Laguardia      FAIR      44  28  53 W5        30.14R
6HR MIN TEMP:  42; 6HR MAX TEMP:  45;

J F K          FAIR      33  28  81 W8        30.15R WCI  26
6HR MIN TEMP:  30; 6HR MAX TEMP:  39;

Boston Logan   NOT AVBL
Ft. Lauderdale MOCLDY    71  66  84 E17       30.13S
6HR MIN TEMP:  70; 6HR MAX TEMP:  71; 6HR PCP: TRACE;

Chicago O`Hare CLOUDY    38  35  89 S6        29.97S FOG     WCI  33
6HR MIN TEMP:  36; 6HR MAX TEMP:  39;

Chicago Midway CLOUDY    40  38  93 S6        29.98S FOG     WCI  36
6HR MIN TEMP:  39; 6HR MAX TEMP:  41;

Houston Bush   CLOUDY    67  65  93 S12       30.00R
6HR MIN TEMP:  67; 6HR MAX TEMP:  67;

Houston Hobby  MOCLDY    64  64 100 S8        29.99S
6HR MIN TEMP:  64; 6HR MAX TEMP:  65;

Nashville      MOCLDY    52  39  61 S6        30.17S
6HR MIN TEMP:  49; 6HR MAX TEMP:  54;

Atlanta        FAIR      41  36  82 CALM      30.24R
6HR MIN TEMP:  41; 6HR MAX TEMP:  47;


$$

GAZ044-118-TXZ119-213-NCZ071-DCZ001-MDZ014-506-PAZ021-071-NJZ106-
NYZ176-178-MAZ106-OHZ011-021-055-MIZ076-KYZ091-ILZ014-INZ047-
MNZ060-ONZ431-211300-

...Gateway Observations for Savannah International...

CITY           SKY/WX    TMP DP  RH WIND       PRES   REMARKS
Savannah Arpt  MOCLDY    46  31  55 CALM      30.26F
6HR MIN TEMP:  45; 6HR MAX TEMP:  50;

Atlanta        FAIR      41  36  82 CALM      30.24R
6HR MIN TEMP:  41; 6HR MAX TEMP:  47;

Charlotte      FAIR      36  32  85 N3        30.23S
6HR MIN TEMP:  33; 6HR MAX TEMP:  44;

Dallas DFW     MOCLDY    64  58  80 S15       29.87F
6HR MIN TEMP:  64; 6HR MAX TEMP:  65;

Houston Bush   CLOUDY    67  65  93 S12       30.00R
6HR MIN TEMP:  67; 6HR MAX TEMP:  67;

Wash National  MOCLDY    35  32  88 S7        30.19R WCI  29
6HR MIN TEMP:  32; 6HR MAX TEMP:  38;

Wash Dulles    MOCLDY    32  30  92 S3        30.18R
6HR MIN TEMP:  28; 6HR MAX TEMP:  32;

Baltimore      MOCLDY    35  33  92 SW3       30.17R
6HR MIN TEMP:  29; 6HR MAX TEMP:  40;

Philadelphia   FAIR      33  28  81 S6        30.18R WCI  28
6HR MIN TEMP:  31; 6HR MAX TEMP:  35;

Newark         FAIR      36  28  73 SW3       30.15R
6HR MIN TEMP:  34; 6HR MAX TEMP:  39;

Laguardia      FAIR      44  28  53 W5        30.14R
6HR MIN TEMP:  42; 6HR MAX TEMP:  45;

J F K          FAIR      33  28  81 W8        30.15R WCI  26
6HR MIN TEMP:  30; 6HR MAX TEMP:  39;

Boston         NOT AVBL
Pittsburg      DRZL/FOG  40  40 100 S3        30.11S VSB 1/2
6HR MIN TEMP:  40; 6HR MAX TEMP:  43; 6HR PCP: TRACE;

Akron          LGT RAIN  37  35  92 S6        30.10R VSB 1/4 WCI  32
6HR MIN TEMP:  37; 6HR MAX TEMP:  40; 6HR PCP:  0.01;

Cleveland      DRIZZLE   38  37  97 S5        30.11S FOG     WCI  34
6HR MIN TEMP:  37; 6HR MAX TEMP:  41; 6HR PCP:  0.01;

Cincinnati     CLOUDY    46  39  76 S6        30.09S
6HR MIN TEMP:  44; 6HR MAX TEMP:  48;

Columbus       CLOUDY    39  40 100 S3        30.10S
Detroit        CLOUDY    36  35  96 S3        30.08R FOG
6HR MIN TEMP:  35; 6HR MAX TEMP:  37;

Chicago O`Hare CLOUDY    38  35  89 S6        29.97S FOG     WCI  33
6HR MIN TEMP:  36; 6HR MAX TEMP:  39;

Minneapolis    CLOUDY    34  31  88 N6        29.95F WCI  29
6HR MIN TEMP:  32; 6HR MAX TEMP:  37;

Indianapolis   CLOUDY    41  41 100 SE5       30.04S FOG
6HR MIN TEMP:  39; 6HR MAX TEMP:  42; 6HR PCP: TRACE;

Toronto Canada MOCLDY    30  27  86 W3        30.08R

$$




USA.gov is the U.S. government's official web portal to all federal, state and local government web resources and services.